Location: Drocourt
(49.0571°N, 1.7669°E)
Time: 22:55:58
(UTC+00:00)

SR - Pass Details

Date: 16 April 2024
Orbit: 579 x 859 km, 66.7° (Epoch: 25 May)

Event Time Altitude Azimuth Distance (km) Brightness Sun altitude
Rises 03:14:03 0° 221° (SW) 3,356 - -16.1°
Reaches altitude 10° 03:16:35 10° 223° (SW) 2,395 - -15.7°
Exits shadow 03:18:46 24° 228° (SW) 1,592 ? -15.5°
Maximum altitude 03:22:05 71° 307° (NW) 819 ? -15.0°
Drops below altitude 10° 03:27:12 10° 33° (NNE) 2,231 ? -14.3°
Sets 03:29:29 0° 35° (NE) 3,109 ? -14.0°
